Date String (YYYY-MM-DD hh:mm:ss) UTC,Instrument flags,Ambient pressure (hPa),Sample flow (lpm),Bypass flow (lpm),Sample temperature (°C),Ambient temperature (°C),ASC tube jacket temperature (°C),LED temperature (°C),Box temperature (°C),Sample RH (%),Span deviation,Mass concentration (μg/m³),Mass concentration (μg/m³),Mass concentration (μg/m³)
DateTimeUTC,F1_M11,P_M11,Q1_M11,Q2_M11,T1_M11,T2_M11,T3_M11,T4_M11,T5_M11,U1_M11,ZSPAN_M11,X0_M11,X2_M11,X1_M11
2022-05-03 05:00:00,,0824.1,5.00,0.00,23.6,22.9,00.0,32.6,25.3,22.3,0000.0,0004.32,0004.05,0003.96
2022-05-03 05:01:00,,0824.1,4.99,0.00,23.6,22.9,00.0,32.6,25.3,22.3,0000.0,0004.32,0004.05,0003.96
2022-05-03 05:02:00,,0824.1,5.01,0.00,23.6,22.9,00.0,32.5,25.4,22.3,0000.0,0004.32,0004.05,0003.96
2022-05-03 05:03:00,,0824.0,4.99,0.00,23.5,22.9,00.0,32.5,25.3,22.2,0000.0,0004.26,0004.03,0003.94
2022-05-03 05:04:00,,0824.1,5.01,0.00,23.5,22.8,00.0,32.5,25.3,22.2,0000.0,0004.17,0004.02,0003.94
2022-05-03 05:05:00,,0824.1,5.00,0.00,23.5,22.8,00.0,32.5,25.3,22.1,0000.0,0004.11,0004.01,0003.94
2022-05-03 05:06:00,,0824.1,4.99,0.00,23.5,22.8,00.0,32.5,25.3,22.1,0000.0,0004.10,0004.01,0003.94
2022-05-03 05:07:00,,0824.1,5.01,0.00,23.5,22.8,00.0,32.5,25.3,22.2,0000.0,0004.11,0004.00,0003.93
2022-05-03 05:08:00,,0824.0,5.00,0.00,23.5,22.8,00.0,32.5,25.2,22.1,0000.0,0004.08,0003.99,0003.93
2022-05-03 05:09:00,,0824.1,4.99,0.00,23.5,22.8,00.0,32.5,25.2,22.1,0000.0,0004.10,0004.00,0003.92
2022-05-03 05:10:00,,0824.1,5.01,0.00,23.5,22.8,00.0,32.5,25.2,22.1,0000.0,0004.19,0004.01,0003.92
2022-05-03 05:11:00,,0824.1,5.00,0.00,23.5,22.8,00.0,32.5,25.3,22.1,0000.0,0004.20,0004.01,0003.92
2022-05-03 05:12:00,,0824.0,5.00,0.00,23.5,22.8,00.0,32.5,25.2,22.1,0000.0,0004.19,0004.01,0003.92
2022-05-03 05:13:00,,0824.0,4.99,0.00,23.5,22.8,00.0,32.5,25.2,22.1,0000.0,0004.18,0004.01,0003.93
2022-05-03 05:14:00,,0824.0,5.01,0.00,23.5,22.8,00.0,32.5,25.2,22.1,0000.0,0004.30,0004.03,0003.95
2022-05-03 05:15:00,,0824.0,5.00,0.00,23.5,22.8,00.0,32.5,25.2,22.1,0000.0,0004.30,0004.04,0003.96
2022-05-03 05:16:00,,0824.0,5.01,0.00,23.4,22.8,00.0,32.5,25.2,22.1,0000.0,0004.30,0004.05,0003.97
2022-05-03 05:17:00,,0824.0,5.00,0.00,23.4,22.7,00.0,32.5,25.2,22.1,0000.0,0004.30,0004.06,0003.98
2022-05-03 05:18:00,,0824.0,5.00,0.00,23.4,22.8,00.0,32.5,25.2,22.1,0000.0,0004.34,0004.06,0003.98
2022-05-03 05:19:00,,0823.9,4.99,0.00,23.4,22.7,00.0,32.5,25.2,22.1,0000.0,0004.37,0004.06,0003.98
2022-05-03 05:20:00,,0823.9,5.01,0.00,23.4,22.7,00.0,32.4,25.1,22.1,0000.0,0004.36,0004.05,0003.98
2022-05-03 05:21:00,,0823.9,5.00,0.00,23.4,22.7,00.0,32.4,25.1,22.2,0000.0,0004.42,0004.04,0003.99
2022-05-03 05:22:00,,0823.9,5.00,0.00,23.4,22.7,00.0,32.4,25.1,22.2,0000.0,0004.82,0004.03,0003.99
2022-05-03 05:23:00,,0824.0,5.00,0.00,23.4,22.7,00.0,32.4,25.1,22.2,0000.0,0004.81,0004.03,0003.99
2022-05-03 05:24:00,,0823.9,5.00,0.00,23.4,22.7,00.0,32.4,25.1,22.2,0000.0,0004.82,0004.03,0003.98
2022-05-03 05:25:00,,0824.0,5.00,0.00,23.3,22.7,00.0,32.4,25.1,22.2,0000.0,0004.72,0004.02,0003.98
2022-05-03 05:26:00,,0824.0,5.00,0.00,23.3,22.6,00.0,32.4,25.1,22.2,0000.0,0004.72,0004.02,0003.98
2022-05-03 05:27:00,,0824.0,4.99,0.00,23.3,22.6,00.0,32.4,25.1,22.2,0000.0,0004.75,0004.01,0003.97
2022-05-03 05:28:00,,0824.0,5.00,0.00,23.3,22.6,00.0,32.4,25.1,22.2,0000.0,0004.78,0004.01,0003.95
2022-05-03 05:29:00,,0824.0,5.00,0.00,23.3,22.6,00.0,32.4,25.1,22.2,0000.0,0004.75,0004.00,0003.95
2022-05-03 05:30:00,,0824.0,5.00,0.00,23.3,22.6,00.0,32.4,25.1,22.3,0000.0,0004.80,0004.00,0003.94
2022-05-03 05:31:00,,0823.9,5.00,0.00,23.3,22.7,00.0,32.4,25.1,22.3,0000.0,0004.81,0004.00,0003.94
2022-05-03 05:32:00,,0824.0,5.00,0.00,23.3,22.7,00.0,32.4,25.1,22.3,0000.0,0005.61,0004.02,0003.93
2022-05-03 05:33:00,,0823.9,5.00,0.00,23.3,22.7,00.0,32.3,25.1,22.3,0000.0,0005.30,0004.01,0003.92
2022-05-03 05:34:00,,0824.0,5.00,0.00,23.3,22.7,00.0,32.3,25.1,22.4,0000.0,0005.26,0003.99,0003.91
2022-05-03 05:35:00,,0824.0,5.00,0.00,23.3,22.7,00.0,32.3,25.1,22.4,0000.0,0005.24,0003.98,0003.90
2022-05-03 05:36:00,,0823.9,5.01,0.00,23.3,22.7,00.0,32.3,25.1,22.3,0000.0,0005.28,0003.99,0003.90
2022-05-03 05:37:00,,0823.9,5.00,0.00,23.3,22.7,00.0,32.3,25.1,22.3,0000.0,0005.25,0003.97,0003.89
2022-05-03 05:38:00,,0823.8,4.99,0.00,23.3,22.7,00.0,32.3,25.1,22.3,0000.0,0005.20,0003.96,0003.88
2022-05-03 05:39:00,,0823.8,5.02,0.00,23.3,22.7,00.0,32.3,25.1,22.3,0000.0,0005.16,0003.95,0003.88
2022-05-03 05:40:00,,0823.8,4.99,0.00,23.3,22.7,00.0,32.3,25.1,22.3,0000.0,0005.15,0003.96,0003.88
2022-05-03 05:41:00,,0823.7,5.01,0.00,23.3,22.7,00.0,32.3,25.1,22.3,0000.0,0005.17,0003.97,0003.88
2022-05-03 05:42:00,,0823.8,5.00,0.00,23.3,22.7,00.0,32.3,25.1,22.3,0000.0,0005.27,0003.96,0003.87
2022-05-03 05:43:00,,0823.7,4.99,0.00,23.3,22.7,00.0,32.3,25.1,22.3,0000.0,0004.36,0003.95,0003.88
2022-05-03 05:44:00,,0823.7,5.01,0.00,23.3,22.7,00.0,32.3,25.1,22.2,0000.0,0004.20,0003.95,0003.89
2022-05-03 05:45:00,,0823.7,4.99,0.00,23.3,22.7,00.0,32.3,25.1,22.3,0000.0,0004.26,0003.97,0003.90
2022-05-03 05:46:00,,0823.8,5.00,0.00,23.3,22.7,00.0,32.3,25.1,22.3,0000.0,0004.83,0003.98,0003.91
2022-05-03 05:47:00,,0823.8,5.01,0.00,23.3,22.7,00.0,32.3,25.1,22.3,0000.0,0005.25,0003.97,0003.90
2022-05-03 05:48:00,,0823.8,5.00,0.00,23.3,22.7,00.0,32.3,25.1,22.3,0000.0,0005.27,0003.98,0003.91
2022-05-03 05:49:00,,0823.8,5.00,0.00,23.3,22.7,00.0,32.3,25.1,22.3,0000.0,0005.33,0004.01,0003.93
2022-05-03 05:50:00,,0823.7,4.99,0.00,23.3,22.7,00.0,32.3,25.1,22.3,0000.0,0005.35,0004.02,0003.94
2022-05-03 05:51:00,,0823.8,5.01,0.00,23.3,22.7,00.0,32.3,25.1,22.3,0000.0,0005.42,0004.04,0003.96
2022-05-03 05:52:00,,0823.8,5.00,0.00,23.3,22.7,00.0,32.3,25.1,22.3,0000.0,0005.28,0004.04,0003.98
2022-05-03 05:53:00,,0823.8,5.00,0.00,23.3,22.7,00.0,32.3,25.1,22.3,0000.0,0005.15,0004.04,0003.99
2022-05-03 05:54:00,,0823.8,5.00,0.00,23.3,22.7,00.0,32.3,25.1,22.3,0000.0,0005.05,0004.02,0003.98
2022-05-03 05:55:00,,0823.8,5.00,0.00,23.3,22.7,00.0,32.3,25.1,22.3,0000.0,0005.08,0004.02,0003.98
2022-05-03 05:56:00,,0823.8,5.00,0.00,23.4,22.7,00.0,32.3,25.1,22.3,0000.0,0005.14,0004.04,0003.98
2022-05-03 05:57:00,,0823.8,5.00,0.00,23.4,22.7,00.0,32.3,25.1,22.3,0000.0,0004.63,0004.07,0004.01
2022-05-03 05:58:00,,0823.8,5.01,0.00,23.4,22.7,00.0,32.3,25.1,22.3,0000.0,0004.23,0004.10,0004.04
2022-05-03 05:59:00,,0823.8,5.00,0.00,23.4,22.7,00.0,32.3,25.1,22.3,0000.0,0004.28,0004.12,0004.04
